Weather History for KOSC - March, 2014

Change the Weather History Date:

Friday, March 14, 2014

  Actual Average Record
Temperature  
Mean Temperature 36 °F -  
Max Temperature 48 °F 34 °F 60 °F (2007)
Min Temperature 24 °F 19 °F 3 °F (2005)
Degree Days  
Heating Degree Days 29    
Moisture  
Dew Point 26 °F    
Average Humidity 69    
Maximum Humidity 81    
Minimum Humidity 44    
Precipitation  
Precipitation 0.02 in - - ()
Sea Level Pressure  
Sea Level Pressure 29.54 in    
Wind  
Wind Speed 15 mph (SW)    
Max Wind Speed 28 mph    
Max Gust Speed 38 mph    
Visibility 10 miles    
Events Rain    
Averages and records for this station are not official NWS values.
T = Trace of Precipitation, MM = Missing Value Source: NWS Daily Summary

Daily Weather History Graph

Daily Weather History Graph

Search for Another Location

Airport or City:

Trip Planner

Search our weather history database for the weather conditions in past years. The results will help you decide how hot, cold, wet, or windy it might be!

Date:

Astronomy

Mar. 14, 2014 Rise Set
Actual Time 7:47 AM EDT 7:38 PM EDT
Civil Twilight 7:18 AM EDT 8:07 PM EDT
Nautical Twilight 6:45 AM EDT 8:41 PM EDT
Astronomical Twilight 6:10 AM EDT 9:15 PM EDT
Moon 5:57 PM EDT (3/14) 6:30 AM EDT (3/14)
Length of Visible Light 12h 48m
Length of Day
11h 50m
Waxing Gibbous, 96% of the Moon is Illuminated
Mar 14
Waxing Gibbous
Mar 16
Full
Mar 23
Last Quarter
Mar 30
New
Apr 7
First Quarter

Hourly Weather History & Observations

Time (EDT) Temp. Windchill Dew Point Humidity Pressure Visibility Wind Dir Wind Speed Gust Speed Precip Events Conditions
12:14 AM 25.7 °F 14.6 °F 14.9 °F 64% 29.83 in 10.0 mi SSW 12.7 mph 20.7 mph N/A   Overcast
12:34 AM 25.7 °F 13.5 °F 15.8 °F 66% 29.82 in 10.0 mi SSW 15.0 mph 18.4 mph N/A   Overcast
12:53 AM 25.5 °F 14.9 °F 16.3 °F 68% 29.81 in 10.0 mi SW 11.5 mph 17.3 mph N/A   Overcast
1:14 AM 26.1 °F 14.5 °F 17.1 °F 69% 29.80 in 10.0 mi SW 13.8 mph - N/A   Overcast
1:34 AM 26.2 °F 14.7 °F 17.6 °F 70% 29.80 in 10.0 mi SSW 13.8 mph - N/A   Overcast
1:54 AM 26.6 °F 16.2 °F 18.1 °F 70% 29.79 in 10.0 mi SSW 11.5 mph - N/A   Overcast
2:14 AM 26.6 °F 16.2 °F 18.5 °F 71% 29.78 in 10.0 mi SSW 11.5 mph - N/A   Overcast
2:34 AM 26.8 °F 15.4 °F 19.0 °F 73% 29.77 in 10.0 mi SSW 13.8 mph 20.7 mph N/A   Overcast
2:54 AM 27.1 °F 17.5 °F 19.4 °F 73% 29.76 in 10.0 mi SSW 10.4 mph 18.4 mph N/A   Overcast
3:14 AM 27.1 °F 15.4 °F 20.1 °F 75% 29.75 in 10.0 mi SSW 15.0 mph 21.9 mph N/A   Overcast
3:34 AM 27.3 °F 17.1 °F 20.8 °F 77% 29.73 in 10.0 mi SSW 11.5 mph 18.4 mph N/A   Overcast
3:54 AM 27.5 °F 16.8 °F 21.0 °F 77% 29.72 in 10.0 mi SSW 12.7 mph - N/A   Overcast
4:14 AM 27.1 °F 16.9 °F 21.0 °F 78% 29.71 in 10.0 mi SSW 11.5 mph 18.4 mph N/A   Overcast
4:34 AM 26.6 °F 15.2 °F 20.3 °F 77% 29.70 in 10.0 mi SSW 13.8 mph 20.7 mph N/A   Overcast
4:54 AM 26.1 °F 13.1 °F 19.6 °F 76% 29.69 in 10.0 mi SSW 17.3 mph - N/A   Mostly Cloudy
5:14 AM 25.5 °F 14.3 °F 19.2 °F 77% 29.68 in 10.0 mi SSW 12.7 mph - N/A   Clear
5:33 AM 24.8 °F 11.9 °F 18.9 °F 78% 29.66 in 10.0 mi SSW 16.1 mph - N/A   Clear
5:54 AM 24.6 °F 10.9 °F 18.9 °F 79% 29.65 in 10.0 mi SSW 18.4 mph - N/A   Clear
6:14 AM 24.6 °F 11.3 °F 19.2 °F 80% 29.63 in 10.0 mi SSW 17.3 mph 23.0 mph N/A   Clear
6:33 AM 25.2 °F 11.2 °F 19.8 °F 80% 29.62 in 10.0 mi SSW 19.6 mph 26.5 mph N/A   Clear
6:54 AM 25.3 °F 11.4 °F 20.1 °F 81% 29.61 in 10.0 mi SSW 19.6 mph 24.2 mph N/A   Clear
7:14 AM 25.5 °F 13.3 °F 20.3 °F 81% 29.60 in 10.0 mi SSW 15.0 mph - N/A   Clear
7:33 AM 25.3 °F 13.1 °F 20.3 °F 81% 29.59 in 10.0 mi SSW 15.0 mph 20.7 mph N/A   Clear
7:54 AM 25.7 °F 14.6 °F 20.7 °F 81% 29.58 in 7.0 mi SSW 12.7 mph - N/A   Clear
8:14 AM 26.1 °F 14.5 °F 21.0 °F 81% 29.57 in 7.0 mi SSW 13.8 mph - N/A   Clear
8:33 AM 26.4 °F 17.3 °F 21.2 °F 81% 29.57 in 7.0 mi SSW 9.2 mph - N/A   Clear
8:54 AM 27.0 °F 16.7 °F 21.9 °F 81% 29.55 in 7.0 mi SSW 11.5 mph - N/A   Clear
9:14 AM 28.4 °F 19.7 °F 22.8 °F 80% 29.54 in 7.0 mi SSW 9.2 mph - N/A   Clear
9:33 AM 30.7 °F 20.4 °F 23.9 °F 76% 29.52 in 10.0 mi SSW 13.8 mph - N/A   Clear
9:54 AM 32.2 °F 21.4 °F 25.3 °F 76% 29.50 in 10.0 mi SSW 16.1 mph 20.7 mph N/A   Scattered Clouds
10:14 AM 34.0 °F 23.4 °F 26.1 °F 73% 29.50 in 10.0 mi SSW 17.3 mph - N/A   Scattered Clouds
10:34 AM 35.8 °F 25.7 °F 27.0 °F 70% 29.49 in 10.0 mi SW 17.3 mph 23.0 mph N/A   Clear
10:54 AM 37.4 °F 28.5 °F 27.9 °F 68% 29.49 in 10.0 mi SW 15.0 mph - N/A   Mostly Cloudy
11:14 AM 38.3 °F 28.7 °F 28.0 °F 67% 29.47 in 10.0 mi SW 18.4 mph 26.5 mph N/A   Mostly Cloudy
11:34 AM 38.8 °F 29.1 °F 28.2 °F 66% 29.46 in 10.0 mi SW 19.6 mph 28.8 mph N/A   Mostly Cloudy
11:54 AM 39.7 °F 31.2 °F 28.4 °F 64% 29.45 in 10.0 mi SW 16.1 mph - N/A   Scattered Clouds
12:14 PM 41.0 °F 33.5 °F 28.8 °F 62% 29.44 in 10.0 mi SW 13.8 mph 25.3 mph N/A   Scattered Clouds
12:34 PM 42.8 °F 35.4 °F 28.9 °F 58% 29.44 in 10.0 mi SW 15.0 mph 26.5 mph N/A   Clear
12:54 PM 43.9 °F 35.4 °F 29.1 °F 56% 29.43 in 10.0 mi SW 20.7 mph 27.6 mph N/A   Clear
1:14 PM 45.7 °F 36.7 °F 28.9 °F 52% 29.42 in 10.0 mi WSW 26.5 mph 33.4 mph N/A   Clear
1:34 PM 45.7 °F 38.3 °F 29.1 °F 52% 29.41 in 10.0 mi SW 18.4 mph 26.5 mph N/A   Clear
1:54 PM 46.8 °F - 28.6 °F 49% 29.40 in 10.0 mi SW 24.2 mph 29.9 mph N/A   Clear
2:14 PM 46.2 °F 38.5 °F 29.1 °F 51% 29.40 in 10.0 mi SW 20.7 mph 25.3 mph N/A   Clear
2:34 PM 46.8 °F - 28.9 °F 50% 29.38 in 10.0 mi SW 17.3 mph 25.3 mph N/A   Clear
2:54 PM 47.8 °F - 28.6 °F 47% 29.36 in 10.0 mi SSW 17.3 mph 26.5 mph N/A   Clear
3:14 PM 48.4 °F - 28.2 °F 46% 29.36 in 10.0 mi SSW 19.6 mph 28.8 mph N/A   Clear
3:34 PM 48.6 °F - 28.0 °F 45% 29.35 in 10.0 mi SSW 21.9 mph 27.6 mph N/A   Clear
3:54 PM 48.6 °F - 27.5 °F 44% 29.35 in 10.0 mi SW 26.5 mph 32.2 mph N/A   Clear
4:13 PM 48.0 °F - 27.9 °F 46% 29.36 in 10.0 mi SW 27.6 mph 36.8 mph N/A   Clear
4:34 PM 46.4 °F 37.7 °F 28.6 °F 50% 29.37 in 10.0 mi WSW 26.5 mph 34.5 mph N/A   Mostly Cloudy
4:54 PM 45.0 °F 37.1 °F 28.9 °F 53% 29.38 in 10.0 mi WSW 19.6 mph 34.5 mph N/A   Overcast
5:13 PM 42.4 °F 32.2 °F 32.9 °F 69% 29.40 in 7.0 mi WSW 27.6 mph 38.0 mph 0.01 in Rain Rain
5:34 PM 40.5 °F 32.8 °F 34.7 °F 80% 29.40 in 10.0 mi WSW 13.8 mph 25.3 mph 0.02 in Rain Light Rain
5:54 PM 40.8 °F 34.5 °F 35.1 °F 80% 29.39 in 10.0 mi SW 10.4 mph - 0.02 in   Scattered Clouds
6:13 PM 42.6 °F 36.3 °F 34.7 °F 74% 29.40 in 10.0 mi SW 11.5 mph 19.6 mph N/A   Clear
6:34 PM 41.9 °F 35.4 °F 34.3 °F 75% 29.40 in 10.0 mi SW 11.5 mph - N/A   Scattered Clouds
6:54 PM 41.7 °F 35.2 °F 33.6 °F 73% 29.41 in 10.0 mi SW 11.5 mph - N/A   Mostly Cloudy
7:13 PM 40.5 °F 34.1 °F 33.3 °F 75% 29.42 in 10.0 mi SW 10.4 mph - N/A   Overcast
7:34 PM 39.2 °F 33.6 °F 33.1 °F 79% 29.44 in 10.0 mi West 8.1 mph - N/A   Light Drizzle
7:54 PM 40.1 °F 34.1 °F 32.7 °F 75% 29.45 in 10.0 mi WSW 9.2 mph - N/A   Overcast
8:13 PM 41.2 °F 31.6 °F 32.9 °F 72% 29.45 in 10.0 mi WSW 21.9 mph 26.5 mph N/A   Mostly Cloudy
8:34 PM 42.3 °F 34.1 °F 32.0 °F 67% 29.46 in 10.0 mi West 17.3 mph 24.2 mph N/A   Overcast
8:54 PM 41.9 °F 34.3 °F 32.4 °F 69% 29.47 in 10.0 mi West 15.0 mph 26.5 mph N/A   Overcast
9:14 PM 41.9 °F 34.0 °F 32.5 °F 69% 29.48 in 10.0 mi West 16.1 mph - N/A   Overcast
9:34 PM 41.9 °F 34.6 °F 32.9 °F 70% 29.49 in 10.0 mi West 13.8 mph 26.5 mph N/A   Overcast
9:54 PM 41.0 °F 32.8 °F 33.4 °F 74% 29.50 in 10.0 mi West 16.1 mph 24.2 mph N/A   Overcast
10:14 PM 40.1 °F 32.7 °F 32.4 °F 74% 29.51 in 10.0 mi West 12.7 mph - N/A   Scattered Clouds
10:34 PM 39.6 °F 32.1 °F 32.2 °F 75% 29.52 in 10.0 mi West 12.7 mph - N/A   Mostly Cloudy
10:54 PM 39.4 °F 31.8 °F 32.2 °F 75% 29.54 in 10.0 mi WNW 12.7 mph 19.6 mph N/A   Overcast
11:14 PM 39.0 °F 31.8 °F 32.0 °F 76% 29.54 in 10.0 mi West 11.5 mph 18.4 mph N/A   Overcast
11:34 PM 38.7 °F 29.8 °F 32.0 °F 77% 29.55 in 10.0 mi West 16.1 mph 21.9 mph N/A   Overcast
11:54 PM 38.3 °F 30.5 °F 32.0 °F 78% 29.56 in 10.0 mi West 12.7 mph 16.1 mph N/A   Overcast